| time (UTC) | temp F | wind direction | speed knots | gust knots | rain 1hr in | rain 24hr in | rain mn in | humidity % | barometer mb |
| 20260905204939 | 93 | 221 | 3.5 | 7.8 | 0.00 | 0.00 | 0.00 | 20 | 1013.5 |
| 20260905204209 | 93 | 222 | 4.3 | 7.8 | 0.00 | 0.00 | 0.00 | 20 | 1013.6 |
| 20260905203709 | 93 | 231 | 3.5 | 7.0 | 0.00 | 0.00 | 0.00 | 21 | 1013.6 |
| 20260905203208 | 94 | 235 | 3.5 | 7.0 | 0.00 | 0.00 | 0.00 | 21 | 1013.6 |
| 20260905202935 | 93 | 234 | 2.6 | 7.0 | 0.00 | 0.00 | 0.00 | 22 | 1013.6 |
| 20260905202207 | 93 | 215 | 2.6 | 6.1 | 0.00 | 0.00 | 0.00 | 20 | 1013.7 |
| 20260905201702 | 93 | 211 | 1.7 | 6.1 | 0.00 | 0.00 | 0.00 | 23 | 1013.8 |
| 20260905201200 | 93 | 207 | 2.6 | 6.1 | 0.00 | 0.00 | 0.00 | 21 | 1013.9 |
| 20260905200701 | 92 | 219 | 2.6 | 6.1 | 0.00 | 0.00 | 0.00 | 21 | 1014.0 |
| 20260905200157 | 92 | 237 | 2.6 | 5.2 | 0.00 | 0.00 | 0.00 | 22 | 1014.0 |
| 20260905195658 | 92 | 237 | 3.5 | 5.2 | 0.00 | 0.00 | 0.00 | 23 | 1014.1 |
| 20260905195157 | 92 | 229 | 1.7 | 5.2 | 0.00 | 0.00 | 0.00 | 24 | 1014.1 |
| 20260905194656 | 91 | 218 | 1.7 | 5.2 | 0.00 | 0.00 | 0.00 | 22 | 1014.2 |
| 20260905194154 | 90 | 218 | 2.6 | 5.2 | 0.00 | 0.00 | 0.00 | 23 | 1014.3 |
| 20260905193653 | 90 | 218 | 3.5 | 6.1 | 0.00 | 0.00 | 0.00 | 24 | 1014.4 |
| 20260905193426 | 90 | 218 | 2.6 | 6.1 | 0.00 | 0.00 | 0.00 | 22 | 1014.4 |
| 20260905192652 | 90 | 219 | 1.7 | 6.1 | 0.00 | 0.00 | 0.00 | 24 | 1014.5 |
| 20260905192153 | 90 | 219 | 2.6 | 6.1 | 0.00 | 0.00 | 0.00 | 24 | 1014.6 |
| 20260905191648 | 90 | 219 | 1.7 | 5.2 | 0.00 | 0.00 | 0.00 | 25 | 1014.6 |
| 20260905191148 | 90 | 218 | 1.7 | 3.5 | 0.00 | 0.00 | 0.00 | 25 | 1014.6 |
| 20260905190649 | 89 | 219 | 1.7 | 5.2 | 0.00 | 0.00 | 0.00 | 25 | 1014.6 |
| 20260905190148 | 88 | 219 | 2.6 | 5.2 | 0.00 | 0.00 | 0.00 | 25 | 1014.7 |
| 20260905185645 | 87 | 219 | 2.6 | 6.1 | 0.00 | 0.00 | 0.00 | 26 | 1014.8 |
| 20260905185145 | 88 | 219 | 1.7 | 6.1 | 0.00 | 0.00 | 0.00 | 26 | 1014.9 |
| 20260905184910 | 87 | 219 | 2.6 | 6.1 | 0.00 | 0.00 | 0.00 | 26 | 1015.0 |
| 20260905184410 | 87 | 219 | 3.5 | 6.1 | 0.00 | 0.00 | 0.00 | 26 | 1015.0 |
| 20260905183639 | 87 | 219 | 2.6 | 6.1 | 0.00 | 0.00 | 0.00 | 26 | 1015.1 |
| 20260905183138 | 88 | 219 | 1.7 | 5.2 | 0.00 | 0.00 | 0.00 | 26 | 1015.1 |
| 20260905182639 | 87 | 222 | 1.7 | 4.3 | 0.00 | 0.00 | 0.00 | 27 | 1015.1 |
| 20260905182139 | 87 | 222 | 1.7 | 5.2 | 0.00 | 0.00 | 0.00 | 26 | 1015.1 |
| 20260905181909 | 87 | 222 | 1.7 | 5.2 | 0.00 | 0.00 | 0.00 | 26 | 1015.1 |
| 20260905181409 | 86 | 228 | 1.7 | 4.3 | 0.00 | 0.00 | 0.00 | 28 | 1015.1 |
| 20260905180639 | 86 | 228 | 0.9 | 3.5 | 0.00 | 0.00 | 0.00 | 29 | 1015.2 |
| 20260905180139 | 86 | 228 | 0.9 | 3.5 | 0.00 | 0.00 | 0.00 | 30 | 1015.2 |
| 20260905175635 | 85 | 228 | 1.7 | 3.5 | 0.00 | 0.00 | 0.00 | 31 | 1015.1 |
| 20260905175134 | 84 | 228 | 1.7 | 3.5 | 0.00 | 0.00 | 0.00 | 31 | 1015.1 |
| 20260905174634 | 83 | 228 | 0.9 | 3.5 | 0.00 | 0.00 | 0.00 | 32 | 1015.1 |
| 20260905174133 | 83 | 228 | 0.9 | 2.6 | 0.00 | 0.00 | 0.00 | 31 | 1015.1 |
| 20260905173632 | 83 | 228 | 0.9 | 2.6 | 0.00 | 0.00 | 0.00 | 32 | 1015.1 |
| 20260905173131 | 82 | 228 | 0.0 | 2.6 | 0.00 | 0.00 | 0.00 | 34 | 1015.1 |
| 20260905172626 | 82 | 228 | 0.0 | 2.6 | 0.00 | 0.00 | 0.00 | 35 | 1015.1 |
| 20260905172127 | 81 | 228 | 0.9 | 2.6 | 0.00 | 0.00 | 0.00 | 38 | 1015.1 |
| 20260905171628 | 80 | 228 | 0.9 | 3.5 | 0.00 | 0.00 | 0.00 | 39 | 1015.1 |
| 20260905171125 | 79 | 228 | 1.7 | 3.5 | 0.00 | 0.00 | 0.00 | 44 | 1015.2 |
| 20260905170624 | 79 | 228 | 1.7 | 3.5 | 0.00 | 0.00 | 0.00 | 45 | 1015.2 |
| 20260905170124 | 78 | 228 | 1.7 | 3.5 | 0.00 | 0.00 | 0.00 | 46 | 1015.2 |
| 20260905165622 | 78 | 228 | 0.9 | 4.3 | 0.00 | 0.00 | 0.00 | 50 | 1015.3 |
| 20260905165122 | 77 | 228 | 0.9 | 4.3 | 0.00 | 0.00 | 0.00 | 51 | 1015.2 |
| 20260905164622 | 76 | 228 | 1.7 | 3.5 | 0.00 | 0.00 | 0.00 | 52 | 1015.3 |
| 20260905164122 | 76 | 228 | 2.6 | 3.5 | 0.00 | 0.00 | 0.00 | 53 | 1015.3 |
| 20260905163620 | 75 | 228 | 1.7 | 3.5 | 0.00 | 0.00 | 0.00 | 54 | 1015.2 |
| 20260905163120 | 76 | 228 | 0.9 | 3.5 | 0.00 | 0.00 | 0.00 | 54 | 1015.2 |
| 20260905162617 | 75 | 228 | 0.0 | 0.0 | 0.00 | 0.00 | 0.00 | 56 | 1015.2 |
| 20260905162115 | 75 | 228 | 0.0 | 0.0 | 0.00 | 0.00 | 0.00 | 59 | 1015.1 |
| 20260905161615 | 74 | 228 | 0.0 | 1.7 | 0.00 | 0.00 | 0.00 | 61 | 1015.1 |
| 20260905161113 | 73 | 228 | 0.9 | 2.6 | 0.00 | 0.00 | 0.00 | 63 | 1015.0 |
| 20260905160611 | 72 | 228 | 1.7 | 2.6 | 0.00 | 0.00 | 0.00 | 65 | 1015.0 |
| 20260905160344 | 72 | 228 | 1.7 | 3.5 | 0.00 | 0.00 | 0.00 | 65 | 1015.1 |
| 20260905155837 | 71 | 228 | 1.7 | 2.6 | 0.00 | 0.00 | 0.00 | 66 | 1015.1 |
| 20260905155103 | 71 | 228 | 0.9 | 2.6 | 0.00 | 0.00 | 0.00 | 68 | 1015.0 |
| 20260905154602 | 71 | 228 | 0.9 | 3.5 | 0.00 | 0.00 | 0.00 | 69 | 1015.0 |
| 20260905154102 | 71 | 228 | 1.7 | 4.3 | 0.00 | 0.00 | 0.00 | 70 | 1015.0 |
| 20260905153559 | 70 | 228 | 1.7 | 4.3 | 0.00 | 0.00 | 0.00 | 70 | 1015.0 |
| 20260905153059 | 70 | 228 | 0.9 | 3.5 | 0.00 | 0.00 | 0.00 | 71 | 1014.9 |
| 20260905152556 | 70 | 228 | 0.9 | 3.5 | 0.00 | 0.00 | 0.00 | 71 | 1015.0 |
| 20260905152056 | 70 | 228 | 1.7 | 3.5 | 0.00 | 0.00 | 0.00 | 71 | 1014.9 |
| 20260905151556 | 70 | 228 | 1.7 | 3.5 | 0.00 | 0.00 | 0.00 | 71 | 1014.9 |
| 20260905151057 | 69 | 228 | 0.9 | 3.5 | 0.00 | 0.00 | 0.00 | 71 | 1014.9 |
| 20260905150552 | 69 | 228 | 0.9 | 3.5 | 0.00 | 0.00 | 0.00 | 72 | 1014.9 |
| 20260905150104 | 68 | 228 | 1.7 | 3.5 | 0.00 | 0.00 | 0.00 | 71 | 1014.8 |
| 20260905145549 | 67 | 228 | 1.7 | 3.5 | 0.00 | 0.00 | 0.00 | 72 | 1014.8 |
| 20260905145049 | 67 | 228 | 0.9 | 3.5 | 0.00 | 0.00 | 0.00 | 75 | 1014.7 |
| 20260905144548 | 67 | 228 | 0.9 | 2.6 | 0.00 | 0.00 | 0.00 | 79 | 1014.7 |
| 20260905143547 | 67 | 228 | 0.0 | 0.9 | 0.00 | 0.00 | 0.00 | 82 | 1014.5 |
| 20260905143045 | 66 | 228 | 0.0 | 0.9 | 0.00 | 0.00 | 0.00 | 83 | 1014.5 |
| 20260905142544 | 66 | 228 | 0.0 | 0.0 | 0.00 | 0.00 | 0.00 | 83 | 1014.5 |
| 20260905142043 | 65 | 228 | 0.0 | 0.0 | 0.00 | 0.00 | 0.00 | 84 | 1014.5 |
| 20260905141537 | 65 | 228 | 0.0 | 0.0 | 0.00 | 0.00 | 0.00 | 84 | 1014.6 |
| 20260905141308 | 64 | 228 | 0.0 | 0.0 | 0.00 | 0.00 | 0.00 | 84 | 1014.6 |
| 20260905140537 | 64 | 228 | 0.0 | 0.0 | 0.00 | 0.00 | 0.00 | 84 | 1014.5 |
| 20260905140037 | 64 | 228 | 0.0 | 0.0 | 0.00 | 0.00 | 0.00 | 84 | 1014.5 |
| 20260905135534 | 64 | 228 | 0.0 | 0.0 | 0.00 | 0.00 | 0.00 | 84 | 1014.4 |
| 20260905135036 | 64 | 228 | 0.0 | 0.0 | 0.00 | 0.00 | 0.00 | 84 | 1014.4 |
| 20260905134536 | 63 | 228 | 0.0 | 0.0 | 0.00 | 0.00 | 0.00 | 84 | 1014.3 |
| 20260905134306 | 63 | 228 | 0.0 | 0.0 | 0.00 | 0.00 | 0.00 | 84 | 1014.3 |
| 20260905133547 | 63 | 228 | 0.0 | 0.0 | 0.00 | 0.00 | 0.00 | 84 | 1014.3 |
| 20260905133032 | 63 | 228 | 0.0 | 0.0 | 0.00 | 0.00 | 0.00 | 84 | 1014.2 |
| 20260905132532 | 63 | 228 | 0.0 | 0.0 | 0.00 | 0.00 | 0.00 | 85 | 1014.2 |
| 20260905132033 | 63 | 228 | 0.0 | 0.0 | 0.00 | 0.00 | 0.00 | 85 | 1014.1 |
| 20260905131804 | 63 | 228 | 0.0 | 0.0 | 0.00 | 0.00 | 0.00 | 85 | 1014.0 |
| 20260905131034 | 63 | 228 | 0.0 | 0.0 | 0.00 | 0.00 | 0.00 | 85 | 1014.0 |
| 20260905130317 | 63 | 228 | 0.0 | 0.0 | 0.00 | 0.00 | 0.00 | 85 | 1014.0 |
| 20260905125534 | 63 | 228 | 0.0 | 0.0 | 0.00 | 0.00 | 0.00 | 85 | 1013.9 |
| 20260905125306 | 63 | 228 | 0.0 | 0.0 | 0.00 | 0.00 | 0.00 | 85 | 1013.9 |
| 20260905124804 | 62 | 228 | 0.0 | 0.0 | 0.00 | 0.00 | 0.00 | 85 | 1013.9 |
| 20260905124031 | 63 | 228 | 0.0 | 0.0 | 0.00 | 0.00 | 0.00 | 85 | 1013.9 |
| 20260905123529 | 62 | 228 | 0.0 | 0.0 | 0.00 | 0.00 | 0.00 | 85 | 1013.9 |
| 20260905123300 | 62 | 228 | 0.0 | 0.0 | 0.00 | 0.00 | 0.00 | 85 | 1013.8 |
| 20260905122527 | 63 | 228 | 0.0 | 0.0 | 0.00 | 0.00 | 0.00 | 85 | 1013.8 |
| 20260905122025 | 62 | 228 | 0.0 | 0.0 | 0.00 | 0.00 | 0.00 | 85 | 1013.9 |
| 20260905121522 | 62 | 228 | 0.0 | 0.0 | 0.00 | 0.00 | 0.00 | 85 | 1013.9 |
| 20260905121023 | 62 | 228 | 0.0 | 0.0 | 0.00 | 0.00 | 0.00 | 84 | 1013.9 |
| 20260905120524 | 62 | 228 | 0.0 | 0.0 | 0.00 | 0.00 | 0.00 | 84 | 1013.9 |
| 20260905120025 | 62 | 228 | 0.0 | 0.0 | 0.00 | 0.00 | 0.00 | 84 | 1013.9 |
| 20260905115520 | 62 | 228 | 0.0 | 0.0 | 0.00 | 0.00 | 0.00 | 84 | 1013.8 |
| 20260905115024 | 62 | 228 | 0.0 | 0.0 | 0.00 | 0.00 | 0.00 | 84 | 1013.9 |
| 20260905114520 | 63 | 228 | 0.0 | 0.0 | 0.00 | 0.00 | 0.00 | 84 | 1013.9 |
| 20260905114020 | 63 | 228 | 0.0 | 0.0 | 0.00 | 0.00 | 0.00 | 84 | 1013.9 |
| 20260905113518 | 63 | 228 | 0.0 | 0.0 | 0.00 | 0.00 | 0.00 | 84 | 1013.9 |
| 20260905113018 | 63 | 228 | 0.0 | 0.0 | 0.00 | 0.00 | 0.00 | 84 | 1013.8 |
| 20260905112520 | 63 | 228 | 0.0 | 0.0 | 0.00 | 0.00 | 0.00 | 83 | 1013.9 |
| 20260905112009 | 63 | 228 | 0.0 | 0.0 | 0.00 | 0.00 | 0.00 | 84 | 1013.9 |
| 20260905111509 | 63 | 228 | 0.0 | 0.0 | 0.00 | 0.00 | 0.00 | 83 | 1014.0 |
| 20260905111253 | 63 | 228 | 0.0 | 0.0 | 0.00 | 0.00 | 0.00 | 83 | 1013.9 |
| 20260905110505 | 63 | 228 | 0.0 | 0.0 | 0.00 | 0.00 | 0.00 | 83 | 1014.0 |
| 20260905110006 | 64 | 228 | 0.0 | 0.0 | 0.00 | 0.00 | 0.00 | 83 | 1014.0 |
| 20260905105515 | 64 | 228 | 0.0 | 0.0 | 0.00 | 0.00 | 0.00 | 83 | 1014.0 |
| 20260905105001 | 64 | 228 | 0.0 | 0.0 | 0.00 | 0.00 | 0.00 | 83 | 1014.0 |
| 20260905104501 | 64 | 228 | 0.0 | 0.0 | 0.00 | 0.00 | 0.00 | 82 | 1014.0 |
| 20260905103959 | 64 | 228 | 0.0 | 0.0 | 0.00 | 0.00 | 0.00 | 82 | 1014.1 |
| 20260905103500 | 64 | 228 | 0.0 | 0.0 | 0.00 | 0.00 | 0.00 | 82 | 1014.0 |
| 20260905102500 | 64 | 228 | 0.0 | 0.0 | 0.00 | 0.00 | 0.00 | 81 | 1014.1 |
| 20260905101957 | 64 | 228 | 0.0 | 0.0 | 0.00 | 0.00 | 0.00 | 82 | 1014.1 |
| 20260905100955 | 64 | 228 | 0.0 | 0.0 | 0.00 | 0.00 | 0.00 | 81 | 1014.0 |
| 20260905100452 | 64 | 228 | 0.0 | 0.0 | 0.00 | 0.00 | 0.00 | 81 | 1014.1 |
| 20260905095953 | 65 | 228 | 0.0 | 0.0 | 0.00 | 0.00 | 0.00 | 81 | 1014.1 |
| 20260905095449 | 65 | 228 | 0.0 | 0.0 | 0.00 | 0.00 | 0.00 | 80 | 1014.1 |
| 20260905095220 | 65 | 228 | 0.0 | 0.9 | 0.00 | 0.00 | 0.00 | 80 | 1014.1 |
| 20260905094449 | 65 | 228 | 0.0 | 0.9 | 0.00 | 0.00 | 0.00 | 80 | 1014.1 |
| 20260905093946 | 65 | 228 | 0.0 | 0.9 | 0.00 | 0.00 | 0.00 | 79 | 1014.1 |
| 20260905093444 | 65 | 228 | 0.0 | 0.0 | 0.00 | 0.00 | 0.00 | 79 | 1014.1 |
| 20260905092945 | 65 | 228 | 0.0 | 0.0 | 0.00 | 0.00 | 0.00 | 79 | 1014.0 |
| 20260905092444 | 65 | 228 | 0.0 | 0.0 | 0.00 | 0.00 | 0.00 | 79 | 1014.1 |
| 20260905092213 | 65 | 228 | 0.0 | 0.0 | 0.00 | 0.00 | 0.00 | 80 | 1014.0 |
| 20260905091712 | 65 | 228 | 0.0 | 0.0 | 0.00 | 0.00 | 0.00 | 79 | 1014.0 |
| 20260905090940 | 65 | 228 | 0.0 | 0.0 | 0.00 | 0.00 | 0.00 | 79 | 1014.1 |
| 20260905090442 | 65 | 228 | 0.0 | 0.9 | 0.00 | 0.00 | 0.00 | 79 | 1014.1 |
| 20260905085941 | 65 | 228 | 0.0 | 0.9 | 0.00 | 0.00 | 0.00 | 78 | 1014.2 |
| 20260905085709 | 65 | 228 | 0.0 | 0.0 | 0.00 | 0.00 | 0.00 | 79 | 1014.2 |
| 20260905084937 | 65 | 228 | 0.0 | 0.0 | 0.00 | 0.00 | 0.00 | 78 | 1014.3 |
| 20260905084437 | 66 | 228 | 0.0 | 1.7 | 0.00 | 0.00 | 0.00 | 78 | 1014.3 |
| 20260905083935 | 66 | 228 | 0.0 | 1.7 | 0.00 | 0.00 | 0.00 | 78 | 1014.3 |
| 20260905083436 | 65 | 228 | 0.0 | 1.7 | 0.00 | 0.00 | 0.00 | 77 | 1014.3 |
| 20260905082933 | 66 | 228 | 0.0 | 0.9 | 0.00 | 0.00 | 0.00 | 77 | 1014.4 |
| 20260905082703 | 66 | 228 | 0.0 | 0.9 | 0.00 | 0.00 | 0.00 | 77 | 1014.4 |
| 20260905081931 | 66 | 228 | 0.0 | 1.7 | 0.00 | 0.00 | 0.00 | 77 | 1014.5 |
| 20260905081424 | 66 | 228 | 0.9 | 3.5 | 0.00 | 0.00 | 0.00 | 77 | 1014.6 |
| 20260905080922 | 66 | 228 | 1.7 | 3.5 | 0.00 | 0.00 | 0.00 | 76 | 1014.5 |
| 20260905080422 | 67 | 228 | 1.7 | 3.5 | 0.00 | 0.00 | 0.00 | 76 | 1014.6 |
| 20260905080152 | 67 | 228 | 0.9 | 2.6 | 0.00 | 0.00 | 0.00 | 75 | 1014.5 |
| 20260905075420 | 67 | 228 | 0.9 | 1.7 | 0.00 | 0.00 | 0.00 | 74 | 1014.6 |
| 20260905074921 | 67 | 228 | 0.9 | 2.6 | 0.00 | 0.00 | 0.00 | 74 | 1014.6 |
| 20260905074420 | 67 | 228 | 0.9 | 2.6 | 0.00 | 0.00 | 0.00 | 74 | 1014.6 |
| 20260905073921 | 67 | 228 | 0.9 | 3.5 | 0.00 | 0.00 | 0.00 | 73 | 1014.5 |
| 20260905073422 | 67 | 228 | 1.7 | 3.5 | 0.00 | 0.00 | 0.00 | 73 | 1014.5 |
| 20260905072921 | 67 | 228 | 2.6 | 4.3 | 0.00 | 0.00 | 0.00 | 73 | 1014.5 |
| 20260905072421 | 67 | 228 | 2.6 | 4.3 | 0.00 | 0.00 | 0.00 | 73 | 1014.4 |
| 20260905071921 | 67 | 228 | 2.6 | 4.3 | 0.00 | 0.00 | 0.00 | 72 | 1014.4 |
| 20260905071415 | 67 | 228 | 2.6 | 4.3 | 0.00 | 0.00 | 0.00 | 72 | 1014.5 |
| 20260905070408 | 67 | 228 | 0.9 | 2.6 | 0.00 | 0.00 | 0.00 | 72 | 1014.4 |
| 20260905065908 | 67 | 228 | 0.0 | 1.7 | 0.00 | 0.00 | 0.00 | 71 | 1014.2 |
| 20260905065409 | 67 | 228 | 0.0 | 1.7 | 0.00 | 0.00 | 0.00 | 70 | 1014.1 |
| 20260905065139 | 67 | 228 | 0.0 | 1.7 | 0.00 | 0.00 | 0.00 | 71 | 1014.2 |
| 20260905064406 | 68 | 228 | 0.0 | 1.7 | 0.00 | 0.00 | 0.00 | 70 | 1014.1 |
| 20260905064136 | 68 | 228 | 0.9 | 1.7 | 0.00 | 0.00 | 0.00 | 71 | 1014.2 |
| 20260905063405 | 68 | 228 | 0.0 | 1.7 | 0.00 | 0.00 | 0.00 | 70 | 1014.1 |
| 20260905062905 | 68 | 228 | 0.9 | 2.6 | 0.00 | 0.00 | 0.00 | 70 | 1014.1 |
| 20260905062405 | 68 | 228 | 0.9 | 3.5 | 0.00 | 0.00 | 0.00 | 70 | 1014.0 |
| 20260905062140 | 68 | 228 | 0.9 | 3.5 | 0.00 | 0.00 | 0.00 | 70 | 1014.1 |
| 20260905061419 | 68 | 228 | 0.9 | 2.6 | 0.00 | 0.00 | 0.00 | 69 | 1014.2 |
| 20260905060903 | 69 | 228 | 1.7 | 2.6 | 0.00 | 0.00 | 0.00 | 69 | 1014.1 |
| 20260905060404 | 69 | 228 | 1.7 | 3.5 | 0.00 | 0.00 | 0.00 | 68 | 1014.1 |
| 20260905060133 | 69 | 228 | 1.7 | 3.5 | 0.00 | 0.00 | 0.00 | 68 | 1014.1 |
| 20260905055403 | 69 | 228 | 1.7 | 2.6 | 0.00 | 0.00 | 0.00 | 68 | 1014.0 |
| 20260905054904 | 69 | 228 | 1.7 | 3.5 | 0.00 | 0.00 | 0.00 | 68 | 1014.0 |
| 20260905054403 | 69 | 228 | 1.7 | 3.5 | 0.00 | 0.00 | 0.00 | 68 | 1014.0 |
| 20260905053902 | 69 | 228 | 1.7 | 3.5 | 0.00 | 0.00 | 0.00 | 67 | 1014.0 |
| 20260905053631 | 69 | 228 | 1.7 | 3.5 | 0.00 | 0.00 | 0.00 | 67 | 1014.0 |
| 20260905052858 | 70 | 228 | 1.7 | 3.5 | 0.00 | 0.00 | 0.00 | 67 | 1014.0 |
| 20260905052359 | 70 | 228 | 1.7 | 5.2 | 0.00 | 0.00 | 0.00 | 67 | 1014.0 |
| 20260905051857 | 70 | 228 | 1.7 | 5.2 | 0.00 | 0.00 | 0.00 | 66 | 1014.0 |
| 20260905051356 | 70 | 228 | 1.7 | 3.5 | 0.00 | 0.00 | 0.00 | 65 | 1013.8 |
| 20260905050856 | 70 | 228 | 1.7 | 3.5 | 0.00 | 0.00 | 0.00 | 65 | 1013.9 |
| 20260905050352 | 70 | 228 | 2.6 | 4.3 | 0.00 | 0.00 | 0.00 | 65 | 1013.8 |
| 20260905045852 | 70 | 228 | 2.6 | 6.1 | 0.00 | 0.00 | 0.00 | 65 | 1013.9 |
| 20260905045624 | 71 | 228 | 3.5 | 6.1 | 0.00 | 0.00 | 0.00 | 65 | 1013.9 |
| 20260905044852 | 71 | 228 | 2.6 | 5.2 | 0.00 | 0.00 | 0.00 | 65 | 1013.8 |
| 20260905044348 | 71 | 228 | 2.6 | 6.1 | 0.00 | 0.00 | 0.00 | 64 | 1013.8 |
| 20260905043849 | 71 | 229 | 3.5 | 6.1 | 0.00 | 0.00 | 0.00 | 64 | 1013.7 |
| 20260905043619 | 71 | 229 | 3.5 | 6.1 | 0.00 | 0.00 | 0.00 | 63 | 1013.6 |
| 20260905043119 | 71 | 229 | 2.6 | 5.2 | 0.00 | 0.00 | 0.00 | 63 | 1013.6 |
| 20260905042343 | 71 | 229 | 1.7 | 5.2 | 0.00 | 0.00 | 0.00 | 62 | 1013.5 |
| 20260905042116 | 72 | 229 | 2.6 | 5.2 | 0.00 | 0.00 | 0.00 | 61 | 1013.5 |
| 20260905040845 | 72 | 229 | 2.6 | 5.2 | 0.00 | 0.00 | 0.00 | 60 | 1013.4 |
| 20260905040340 | 73 | 229 | 1.7 | 5.2 | 0.00 | 0.00 | 0.00 | 58 | 1013.4 |
| 20260905035840 | 73 | 229 | 2.6 | 5.2 | 0.00 | 0.00 | 0.00 | 57 | 1013.3 |
| 20260905035340 | 73 | 229 | 2.6 | 4.3 | 0.00 | 0.00 | 0.00 | 56 | 1013.2 |
| 20260905034840 | 74 | 229 | 2.6 | 3.5 | 0.00 | 0.00 | 0.00 | 55 | 1013.1 |
| 20260905034336 | 74 | 229 | 2.6 | 6.1 | 0.00 | 0.00 | 0.00 | 54 | 1013.0 |
| 20260905033837 | 74 | 229 | 3.5 | 7.0 | 0.00 | 0.00 | 0.00 | 54 | 1013.0 |
| 20260905033336 | 74 | 229 | 3.5 | 7.0 | 0.00 | 0.00 | 0.00 | 54 | 1012.9 |
| 20260905032837 | 74 | 229 | 4.3 | 9.6 | 0.00 | 0.00 | 0.00 | 53 | 1012.8 |
| 20260905032335 | 75 | 230 | 4.3 | 9.6 | 0.00 | 0.00 | 0.00 | 53 | 1012.7 |
| 20260905032108 | 75 | 228 | 4.3 | 8.7 | 0.00 | 0.00 | 0.00 | 54 | 1012.7 |
| 20260905031336 | 75 | 234 | 3.5 | 8.7 | 0.00 | 0.00 | 0.00 | 53 | 1012.6 |
| 20260905030836 | 75 | 234 | 3.5 | 8.7 | 0.00 | 0.00 | 0.00 | 53 | 1012.5 |
| 20260905030335 | 75 | 234 | 3.5 | 8.7 | 0.00 | 0.00 | 0.00 | 52 | 1012.5 |
| 20260905025836 | 76 | 234 | 4.3 | 7.8 | 0.00 | 0.00 | 0.00 | 51 | 1012.3 |
| 20260905025337 | 76 | 233 | 4.3 | 7.8 | 0.00 | 0.00 | 0.00 | 51 | 1012.3 |
| 20260905024336 | 76 | 230 | 4.3 | 8.7 | 0.00 | 0.00 | 0.00 | 49 | 1012.1 |
| 20260905024108 | 77 | 225 | 5.2 | 8.7 | 0.00 | 0.00 | 0.00 | 47 | 1012.1 |
| 20260905022833 | 78 | 221 | 5.2 | 9.6 | 0.00 | 0.00 | 0.00 | 44 | 1012.1 |
| 20260905022333 | 78 | 225 | 4.3 | 9.6 | 0.00 | 0.00 | 0.00 | 41 | 1012.1 |
| 20260905021833 | 79 | 244 | 4.3 | 9.6 | 0.00 | 0.00 | 0.00 | 36 | 1012.1 |
| 20260905021335 | 79 | 234 | 4.3 | 7.8 | 0.00 | 0.00 | 0.00 | 33 | 1012.1 |
| 20260905020833 | 80 | 235 | 3.5 | 7.0 | 0.00 | 0.00 | 0.00 | 31 | 1012.1 |
| 20260905020333 | 80 | 232 | 4.3 | 11.3 | 0.00 | 0.00 | 0.00 | 32 | 1012.1 |
| 20260905015834 | 80 | 225 | 5.2 | 11.3 | 0.00 | 0.00 | 0.00 | 33 | 1012.1 |
| 20260905015606 | 80 | 223 | 7.0 | 11.3 | 0.00 | 0.00 | 0.00 | 32 | 1012.1 |
| 20260905014834 | 80 | 221 | 6.1 | 11.3 | 0.00 | 0.00 | 0.00 | 33 | 1012.1 |
| 20260905014333 | 80 | 225 | 6.1 | 10.4 | 0.00 | 0.00 | 0.00 | 36 | 1012.0 |
| 20260905013834 | 80 | 229 | 7.0 | 12.2 | 0.00 | 0.00 | 0.00 | 39 | 1011.9 |
| 20260905013335 | 80 | 227 | 7.0 | 13.0 | 0.00 | 0.00 | 0.00 | 44 | 1012.0 |
| 20260905012835 | 81 | 218 | 7.0 | 13.0 | 0.00 | 0.00 | 0.00 | 48 | 1012.0 |
| 20260905011834 | 81 | 220 | 7.8 | 13.0 | 0.00 | 0.00 | 0.00 | 47 | 1012.1 |
| 20260905011334 | 81 | 215 | 7.8 | 13.0 | 0.00 | 0.00 | 0.00 | 47 | 1012.1 |
| 20260905010835 | 81 | 218 | 7.0 | 13.9 | 0.00 | 0.00 | 0.00 | 48 | 1012.1 |
| 20260905010335 | 82 | 205 | 7.0 | 13.9 | 0.00 | 0.00 | 0.00 | 47 | 1012.1 |
| 20260905005835 | 82 | 225 | 7.0 | 13.9 | 0.00 | 0.00 | 0.00 | 49 | 1012.1 |
| 20260905005333 | 82 | 221 | 7.8 | 15.6 | 0.00 | 0.00 | 0.00 | 49 | 1012.1 |
| 20260905004834 | 82 | 231 | 7.8 | 15.6 | 0.00 | 0.00 | 0.00 | 49 | 1012.1 |
| 20260905004333 | 82 | 232 | 7.8 | 16.5 | 0.00 | 0.00 | 0.00 | 48 | 1012.1 |
| 20260905004105 | 83 | 209 | 7.0 | 16.5 | 0.00 | 0.00 | 0.00 | 48 | 1012.1 |
| 20260905003332 | 83 | 225 | 7.0 | 13.9 | 0.00 | 0.00 | 0.00 | 47 | 1012.1 |
| 20260905002835 | 83 | 210 | 7.0 | 13.0 | 0.00 | 0.00 | 0.00 | 47 | 1012.1 |
| 20260905002333 | 83 | 225 | 7.0 | 13.0 | 0.00 | 0.00 | 0.00 | 47 | 1012.0 |
| 20260905001833 | 83 | 225 | 7.8 | 14.8 | 0.00 | 0.00 | 0.00 | 46 | 1012.0 |
| 20260905001347 | 84 | 217 | 7.8 | 14.8 | 0.00 | 0.00 | 0.00 | 45 | 1011.9 |
| 20260905000832 | 84 | 222 | 7.8 | 13.9 | 0.00 | 0.00 | 0.00 | 45 | 1012.0 |
| 20260905000333 | 85 | 229 | 7.8 | 13.0 | 0.00 | 0.00 | 0.00 | 44 | 1011.9 |
| 20260904235832 | 85 | 224 | 7.8 | 13.0 | 0.00 | 0.00 | 0.00 | 43 | 1012.0 |
| 20260904235332 | 86 | 205 | 7.0 | 13.0 | 0.00 | 0.00 | 0.00 | 41 | 1012.0 |
| 20260904234834 | 86 | 242 | 7.0 | 13.0 | 0.00 | 0.00 | 0.00 | 40 | 1012.0 |
| 20260904234333 | 86 | 211 | 7.0 | 13.0 | 0.00 | 0.00 | 0.00 | 39 | 1012.0 |
| 20260904233834 | 87 | 219 | 7.0 | 13.0 | 0.00 | 0.00 | 0.00 | 40 | 1011.9 |
| 20260904233334 | 87 | 213 | 7.0 | 12.2 | 0.00 | 0.00 | 0.00 | 39 | 1011.9 |
| 20260904232834 | 87 | 219 | 6.1 | 12.2 | 0.00 | 0.00 | 0.00 | 37 | 1011.8 |
| 20260904232333 | 88 | 263 | 6.1 | 12.2 | 0.00 | 0.00 | 0.00 | 37 | 1011.8 |
| 20260904232103 | 88 | 221 | 6.1 | 12.2 | 0.00 | 0.00 | 0.00 | 35 | 1011.8 |
| 20260904231333 | 88 | 216 | 6.1 | 9.6 | 0.00 | 0.00 | 0.00 | 35 | 1011.8 |
| 20260904230833 | 88 | 246 | 5.2 | 9.6 | 0.00 | 0.00 | 0.00 | 36 | 1011.9 |
| 20260904230334 | 88 | 240 | 5.2 | 9.6 | 0.00 | 0.00 | 0.00 | 34 | 1012.0 |
| 20260904225835 | 89 | 222 | 4.3 | 9.6 | 0.00 | 0.00 | 0.00 | 34 | 1012.0 |
| 20260904225333 | 89 | 227 | 4.3 | 11.3 | 0.00 | 0.00 | 0.00 | 33 | 1012.1 |
| 20260904224605 | 89 | 217 | 5.2 | 11.3 | 0.00 | 0.00 | 0.00 | 32 | 1012.1 |
| 20260904223833 | 88 | 219 | 5.2 | 11.3 | 0.00 | 0.00 | 0.00 | 32 | 1012.1 |
| 20260904223333 | 87 | 252 | 5.2 | 9.6 | 0.00 | 0.00 | 0.00 | 34 | 1012.2 |
| 20260904222334 | 88 | 254 | 4.3 | 9.6 | 0.00 | 0.00 | 0.00 | 33 | 1012.2 |
| 20260904221834 | 88 | 228 | 5.2 | 9.6 | 0.00 | 0.00 | 0.00 | 33 | 1012.2 |
| 20260904221604 | 88 | 257 | 4.3 | 9.6 | 0.00 | 0.00 | 0.00 | 32 | 1012.3 |
| 20260904220832 | 88 | 227 | 3.5 | 8.7 | 0.00 | 0.00 | 0.00 | 32 | 1012.5 |
| 20260904220333 | 88 | 230 | 4.3 | 8.7 | 0.00 | 0.00 | 0.00 | 32 | 1012.5 |
| 20260904215833 | 89 | 223 | 3.5 | 8.7 | 0.00 | 0.00 | 0.00 | 31 | 1012.5 |
| 20260904215335 | 88 | 231 | 4.3 | 7.8 | 0.00 | 0.00 | 0.00 | 32 | 1012.5 |
| 20260904214833 | 88 | 231 | 5.2 | 7.8 | 0.00 | 0.00 | 0.00 | 32 | 1012.5 |
| 20260904214603 | 88 | 221 | 3.5 | 8.7 | 0.00 | 0.00 | 0.00 | 32 | 1012.6 |
| 20260904213833 | 88 | 203 | 3.5 | 8.7 | 0.00 | 0.00 | 0.00 | 33 | 1012.6 |
| 20260904213333 | 88 | 229 | 4.3 | 11.3 | 0.00 | 0.00 | 0.00 | 33 | 1012.6 |
| 20260904212833 | 87 | 225 | 3.5 | 11.3 | 0.00 | 0.00 | 0.00 | 34 | 1012.7 |
| 20260904212335 | 88 | 232 | 2.6 | 10.4 | 0.00 | 0.00 | 0.00 | 35 | 1012.7 |
| 20260904211834 | 87 | 227 | 4.3 | 10.4 | 0.00 | 0.00 | 0.00 | 36 | 1012.7 |
| 20260904211334 | 86 | 221 | 5.2 | 10.4 | 0.00 | 0.00 | 0.00 | 38 | 1012.8 |
| 20260904210834 | 86 | 215 | 4.3 | 9.6 | 0.00 | 0.00 | 0.00 | 38 | 1012.8 |
| 20260904210336 | 86 | 225 | 4.3 | 9.6 | 0.00 | 0.00 | 0.00 | 37 | 1012.9 |
| 20260904205833 | 86 | 249 | 4.3 | 7.8 | 0.00 | 0.00 | 0.00 | 38 | 1012.9 |
| 20260904205604 | 87 | 211 | 3.5 | 7.8 | 0.00 | 0.00 | 0.00 | 39 | 1012.9 |